Overview Statistics Trail Chart Weather Telemetry Raw packets
 

This is the latest recevied weather packets stored in our database for station/object DL2AKT-20. If no packets are shown the sender has not sent any weather packets the latest 10 day(s).

<< 36 37 38 39 40 41 42 >>
Time Temp. Humidity Pressure Rain* Wind** Luminosity Snow
1777341949 12.22° C 38% 1024.1 hPa - - - -
1777341049 12.22° C 38% 1024.3 hPa - - - -
1777339249 13.33° C 36% 1024.1 hPa - - - -
1777338348 13.33° C 37% 1024 hPa - - - -
1777338268 13.33° C 37% 1024 hPa - - - -
1777337371 13.33° C 37% 1023.9 hPa - - - -
1777336471 13.33° C 36% 1024 hPa - - - -
1777335571 13.33° C 36% 1024 hPa - - - -
1777334670 13.33° C 36% 1024 hPa - - - -
1777333770 13.89° C 36% 1024 hPa - - - -
1777332870 13.89° C 36% 1024 hPa - - - -
1777331970 14.44° C 36% 1023.9 hPa - - - -
1777331069 15° C 35% 1024.1 hPa - - - -
1777330169 15° C 35% 1024.1 hPa - - - -
1777329269 13.89° C 36% 1024 hPa - - - -
1777328369 13.89° C 36% 1024 hPa - - - -
1777327469 15.56° C 34% 1024 hPa - - - -
1777326569 15° C 34% 1023.9 hPa - - - -
1777325669 14.44° C 34% 1023.9 hPa - - - -
1777324769 14.44° C 34% 1024 hPa - - - -
1777323869 13.89° C 34% 1024 hPa - - - -
1777322969 15.56° C 32% 1024 hPa - - - -
1777322069 14.44° C 33% 1024.1 hPa - - - -
1777321169 15.56° C 32% 1024.1 hPa - - - -
1777320268 15° C 33% 1024.1 hPa - - - -

* Rain since midnight (hover to see other rain measurements)
** Current wind speed in m/s (hover to see current wind gust speed)